{"data":{"norad_id":48242,"epoch":"2026-09-19T08:02:00.577824Z","epoch_age_seconds":118990,"freshness":"FRESH","line1":"1 48242U 21031AJ  26262.33472891  .00000235  00000+0  59850-3 0  9991","line2":"2 48242  87.8900 270.9251 0002053  99.9206 260.2155 13.14501813260663","mean_motion":13.14501813,"eccentricity":0.0002053,"inclination_deg":87.89,"raan_deg":270.9251,"arg_perigee_deg":99.9206,"mean_anomaly_deg":260.2155,"bstar":0.0005985,"rev_number":26066,"period_min":109.54720531831,"perigee_km":1204.2371698637,"apogee_km":1207.3511319942,"semimajor_km":7583.931150929,"source":"CELESTRAK","updated_at":"2026-09-20T09:00:44.613631Z"}}